Location: Baumgarten
(49.0970°N, 12.7493°E)
Time: 18:45:21
(UTC+00:00)

Cosmos 44 - Pass Details

Date: 05 July 2020
Orbit: 586 x 776 km, 65.1° (Epoch: 11 August)

Event Time Altitude Azimuth Distance (km) Brightness Sun altitude
Exits shadow 22:05:18 27° 129° (SE) 1,149 4.0 -16.6°
Maximum altitude 22:05:50 28° 116° (ESE) 1,129 4.0 -16.7°
Drops below altitude 10° 22:09:35 10° 57° (ENE) 1,962 5.8 -16.8°
Sets 22:12:07 0° 46° (NE) 2,896 6.9 -16.9°
